Regional Weather Roundup
Issued by NWS Raleigh/Durham, NC

Home | Current Version | Previous Version | Text Only | Print | Product List | Glossary On
Versions: 1 2 3 4 5 6 7 8 9 10 11 12 13 14 15 16 17 18 19 20 21 22 23 24 25 26 27 28 29 30 31 32 33 34 35 36 37 38 39 40 41 42 43 44 45 46 47 48 49 50
000
ASUS42 KRAH 191210
RWRRAH
NORTH CAROLINA WEATHER ROUNDUP
NATIONAL WEATHER SERVICE RALEIGH NC
700 AM EST FRI DEC 19 2014

NOTE: "FAIR" INDICATES FEW OR NO CLOUDS BELOW 12,000 FEET WITH NO
SIGNIFICANT WEATHER AND/OR OBSTRUCTIONS TO VISIBILITY.

NCZ001-053-055-056-065-067-191300-
WESTERN NORTH CAROLINA

CITY           SKY/WX    TMP DP  RH WIND       PRES   REMARKS
ASHEVILLE      CLEAR     35  23  61 NW16      30.13R WCI  25
JEFFERSON      CLOUDY    32  13  44 CALM      30.06S
MORGANTON      FAIR      28  27  96 CALM      30.17R
HICKORY        FAIR      32  26  78 CALM      30.12R
RUTHERFORDTON  CLEAR     33  28  83 CALM      30.14R
MOUNT AIRY     CLEAR     38  23  54 N5        30.14S WCI  35
BOONE          MOCLDY    32  18  56 NW6       30.08R WCI  26
$$

NCZ021-022-025-041-071-084-088-191300-
CENTRAL NORTH CAROLINA

CITY           SKY/WX    TMP DP  RH WIND       PRES   REMARKS
CHARLOTTE      PTCLDY    33  23  66 N5        30.13R WCI  29
GREENSBORO     PTCLDY    38  22  52 NE5       30.12R WCI  34
WINSTON-SALEM  CLEAR     38  22  52 NW3       30.14R
RALEIGH-DURHAM MOCLDY    41  25  53 CALM      30.14R
FORT BRAGG     MOCLDY    36  34  91 N2        30.14R
FAYETTEVILLE   PTCLDY    37  33  85 CALM      30.13R
BURLINGTON     PTCLDY    39  18  42 N3        30.13R
LAURINBURG     CLEAR     35  30  82 NE5       30.14R WCI  31
$$

NCZ011-015-027-028-043-044-047-080-103-191300-
NORTHEASTERN NORTH CAROLINA

CITY           SKY/WX    TMP DP  RH WIND       PRES   REMARKS
ROCKY MT-WILSO CLOUDY    37  31  78 N5        30.14R WCI  33
GREENVILLE     MOCLDY    32  32 100 CALM      30.15R FOG
WASHINGTON     PTCLDY    32  31  95 CALM      30.14R
ELIZABETH CITY CLEAR     32  26  78 NW5       30.13R WCI  27
MANTEO         CLEAR     37  33  84 N3        30.11R
CAPE HATTERAS  CLEAR     43  36  76 NW6       30.11R
$$

NCZ078-087-090-091-093-098-101-191300-
SOUTHEASTERN NORTH CAROLINA

CITY           SKY/WX    TMP DP  RH WIND       PRES   REMARKS
LUMBERTON      CLEAR     35  31  85 N5        30.13R WCI  31
GOLDSBORO      CLOUDY    38  37  98 CALM      30.12R
KINSTON        CLOUDY    36  36 100 CALM      30.14R
KENANSVILLE    MOCLDY    32  32  99 CALM      30.14R
NEW BERN       CLEAR     34  31  88 S3        30.14R
CHERRY POINT   MOCLDY    38  32  79 CALM      30.13R
BEAUFORT       MOCLDY    42  35  76 NW9       30.13R
JACKSONVILLE   PTCLDY    32  31  96 CALM      30.12R
WILMINGTON     CLEAR     35  33  92 CALM      30.13R
$$




USA.gov is the U.S. government's official web portal to all federal, state and local government web resources and services.